Weather in Béjaïa

Algeria     36°44′25″N   5°02′54″E
temp.,
°C
wind,
m/s
gust,
m/s
humid.,
%
clouds,
%
prec.,
mm/h
press.,
hPa
HPBL,
m
1 march, mon
mon101:00+12sw227234 0.0 102228
04:00+12sw235689 0.0 102126
07:00+12ssw235151 0.0 102225
10:00+17sse12463 0.0 1022222
13:00+19e33462 0.0 1021613
16:00+17e335989 0.0 1020180
19:00+14sse116794 0.0 102026
22:00+15sw2253100 0.0 102123
2 march, tue
tue201:00+15sw2344100 0.0 102126
04:00+15sw2245100 0.0 102026
07:00+14sw224797 0.0 102224
10:00+18wnw2346100 0.0 1024221
13:00+19ne225293 0.0 1023434
16:00+17ne226474 0.0 1022301
19:00+13n228756 0.0 102247
22:00+11wsw22910 0.0 102439
3 march, wed
wed301:00+12wsw23772 0.0 102444
04:00+11wsw12710 0.0 102333
07:00+11sw117037 0.0 102430
10:00+15se116041 0.0 1024337
13:00+16ne326252 0.0 1023536
16:00+15ne226696 0.0 1022406
19:00+13w017798 0.0 102223
22:00+13wsw2271100 0.0 102226
4 march, thu
thu401:00+13sw2265100 0.0 102228
04:00+13sw1172100 0.0 102034
07:00+11w0180100 0.0 101937
10:00+15nne116689 0.0 1019280
13:00+16nne336465 0.1 1018711
16:00+15nne327355 0.4 1016645
19:00+12sse128944 0.4 101653
22:00+11sw228278 0.0 101636
5 march, fri
fri501:00+11wsw228339 0.0 101559
04:00+10ssw11840 0.0 101440
07:00+9sw11840 0.0 101439
10:00+14ese117248 0.0 1015428
13:00+15ne327153 0.1 1014579
16:00+14ne227169 0.1 1013541
19:00+11se128670 0.1 101386
22:00+10ssw2286100 0.0 101653